Voltar ao catálogo

OPS 4682 DEB

AtivoPO
NORAD 38378·DEBRIS·🇺🇸 United States

Lançado Apr 3, 1965 de Vandenberg Space Force Base

Loading…

Próximas Passagens (próximas 24 horas)

TLE

AtualizadoSource: Space-Track

Época: Sep 12, 2026, 16:09 UTC

1 38378U 65027CF  26255.67316590  .00000271  00000-0  83289-3 0  9999
2 38378  90.2300 341.2320 0032271 313.6829  46.1621 13.03311241630409

Acompanhe OPS 4682 DEB em tempo real com AllMySat

Download on the App Store